This demonstration page uses our WeatherBlox Daily Observations layout. Learn more.

Left ArrowRight Arrow

39.51506, -84.39828

Hourly Observations for November 23, 2020

Temp ( °F °C ) Dew Point ( °F °C ) Humidity (%) Winds ( mph kmh ) Pressure ( in mb ) Visibility ( mi km ) Precip ( " mm )
12:15 am 00:15 Cloudy 39 3.7 37 2.6 93 93 Calm 30.28 1025 10 16.0934 0 0
12:35 am 00:35 Cloudy 39 3.7 37 2.8 94 94 WNW 3 6 30.28 1025 10 16.0934 0 0
12:55 am 00:55 Cloudy 39 3.8 37 2.5 91 91 WNW 3 6 30.29 1026 10 16.0934 0 0
1:15 am 01:15 Partly Cloudy 38 3.2 34 1.3 88 88 NW 5 7 30.28 1025 10 16.0934 0 0
1:35 am 01:35 Mostly Cloudy 37 2.9 34 1.1 88 88 Calm 30.29 1026 10 16.0934 0 0
1:55 am 01:55 Clear 37 2.5 34 1.1 91 91 Calm 30.28 1025 10 16.0934 0 0
2:15 am 02:15 Clear 34 1.2 33 0.6 96 96 Calm 30.28 1025 10 16.0934 0 0
2:35 am 02:35 Clear 32 0 32 -0.1 99 99 Calm 30.29 1026 7 11.26538 0 0
2:55 am 02:55 Cloudy 32 0 N/A N/A Calm 30.3 1026 10 16.0934 0 0
3:15 am 03:15 Cloudy 34 1 N/A N/A Calm 30.29 1026 10 16.0934 0 0
3:35 am 03:35 Cloudy 34 1 N/A N/A W 3 6 30.29 1026 10 16.0934 0 0
3:55 am 03:55 Cloudy 36 2.4 36 2.3 99 99 Calm 30.29 1026 10 16.0934 0 0
4:15 am 04:15 Cloudy 37 2.7 36 2.4 98 98 WSW 3 6 30.29 1026 10 16.0934 0 0
4:35 am 04:35 Cloudy 38 3.2 37 2.7 97 97 WSW 6 9 30.3 1026 10 16.0934 0 0
4:55 am 04:55 Mostly Cloudy 37 2.9 36 2.3 96 96 Calm 30.3 1026 10 16.0934 0 0
5:15 am 05:15 Cloudy 38 3.1 37 2.9 99 99 W 5 7 30.31 1026 10 16.0934 0 0
5:35 am 05:35 Cloudy 38 3.4 37 2.9 97 97 W 5 7 30.31 1026 10 16.0934 0 0
5:55 am 05:55 Cloudy 38 3.6 38 3.1 97 97 WSW 7 11 30.31 1026 10 16.0934 0 0
6:15 am 06:15 Cloudy 38 3.3 37 2.8 97 97 WSW 9 15 30.3 1026 10 16.0934 0 0
6:35 am 06:35 Cloudy 38 3.5 38 3.2 98 98 W 7 11 30.31 1026 10 16.0934 0 0
6:55 am 06:55 Cloudy 39 3.9 38 3.3 96 96 W 8 13 30.3 1026 10 16.0934 0 0
7:15 am 07:15 Cloudy 39 4.1 38 3.4 95 95 W 7 11 30.3 1026 10 16.0934 0 0
7:35 am 07:35 Cloudy 40 4.3 38 3.4 94 94 WNW 7 11 30.31 1027 10 16.0934 0 0
7:55 am 07:55 Cloudy 40 4.6 38 3.3 91 91 WNW 5 7 30.31 1027 10 16.0934 0 0
8:15 am 08:15 Cloudy 40 4.7 38 3.3 91 91 W 3 6 30.31 1027 10 16.0934 0 0
8:35 am 08:35 Cloudy 41 5 38 3.3 89 89 Calm 30.32 1027 10 16.0934 0 0
8:55 am 08:55 Cloudy 41 5.2 38 3.6 90 90 W 5 7 30.33 1027 10 16.0934 0 0
9:15 am 09:15 Cloudy 42 5.3 38 3.6 89 89 W 5 7 30.33 1027 10 16.0934 0 0
9:35 am 09:35 Cloudy 42 5.4 38 3.5 88 88 W 7 11 30.34 1027 10 16.0934 0 0
9:55 am 09:55 Cloudy 42 5.6 38 3.3 85 85 WNW 8 13 30.34 1027 10 16.0934 0 0
10:15 am 10:15 Mostly Cloudy 43 6.3 38 3.3 81 81 WNW 8 13 30.35 1028 10 16.0934 0 0
10:35 am 10:35 Sunny 45 7 38 3.6 79 79 WNW 8 13 30.36 1028 10 16.0934 0 0
10:55 am 10:55 Mostly Cloudy 45 7.4 37 2.6 72 72 WNW 9 15 30.36 1028 10 16.0934 0 0
11:15 am 11:15 Mostly Cloudy 46 7.6 37 2.5 70 70 W 9 15 30.36 1028 10 16.0934 0 0
11:35 am 11:35 Partly Cloudy 46 7.5 37 2.8 72 72 WNW 9 15 30.36 1028 10 16.0934 0 0
11:55 am 11:55 Partly Cloudy 46 7.9 35 1.9 66 66 WNW 10 17 30.34 1028 10 16.0934 0 0
12:15 pm 12:15 Mostly Cloudy 46 7.7 35 1.7 66 66 NNW 8 13 30.33 1027 10 16.0934 0 0
12:35 pm 12:35 Partly Cloudy 46 8 35 1.6 64 64 NNW 5 7 30.33 1027 10 16.0934 0 0
12:55 pm 12:55 Mostly Cloudy 44 6.9 36 2 71 71 NW 12 19 30.34 1027 10 16.0934 0 0
1:15 pm 13:15 Partly Cloudy 47 8.2 35 1.9 65 65 WNW 8 13 30.33 1027 10 16.0934 0 0
1:35 pm 13:35 Partly Cloudy 47 8.3 35 1.5 63 63 NNW 6 9 30.33 1027 10 16.0934 0 0
1:55 pm 13:55 Partly Cloudy 45 7.3 33 0.3 61 61 N 9 15 30.33 1027 10 16.0934 0 0
2:15 pm 14:15 Sunny 46 7.6 32 0 59 59 NNW 8 13 30.33 1027 10 16.0934 0 0
2:35 pm 14:35 Sunny 46 7.9 33 0.7 61 61 NNW 7 11 30.32 1027 10 16.0934 0 0
2:55 pm 14:55 Sunny 46 7.7 34 0.9 62 62 W 6 9 30.32 1027 10 16.0934 0 0
3:15 pm 15:15 Sunny 45 7.2 34 0.9 65 65 WNW 8 13 30.33 1027 10 16.0934 0 0
3:30 pm 15:30 Sunny 45 7.4 34 1 64 64 WNW 7 11 30.32 1027 10 16.0934 0 0
3:55 pm 15:55 Sunny 46 7.6 33 0.7 62 62 NNW 7 11 30.33 1027 10 16.0934 0 0
4:15 pm 16:15 Sunny 45 7 33 0.7 65 65 NW 8 13 30.34 1027 10 16.0934 0 0
4:35 pm 16:35 Sunny 43 6.3 33 0.5 67 67 NW 8 13 30.34 1027 10 16.0934 0 0
4:55 pm 16:55 Sunny 42 5.6 33 0.5 70 70 WNW 6 9 30.35 1028 10 16.0934 0 0
5:15 pm 17:15 Sunny 40 4.3 33 0.4 76 76 NW 5 7 30.36 1028 10 16.0934 0 0
5:35 pm 17:35 Clear 39 4.1 33 0.8 79 79 NNW 6 9 30.36 1028 10 16.0934 0 0
5:55 pm 17:55 Clear 39 4.1 34 0.9 80 80 Calm 30.37 1029 10 16.0934 0 0
6:15 pm 18:15 Clear 40 4.2 33 0.8 79 79 Calm 30.37 1029 10 16.0934 0 0
6:35 pm 18:35 Clear 37 2.5 34 0.9 89 89 Calm 30.38 1029 10 16.0934 0 0
6:55 pm 18:55 Clear 36 2 34 1.1 94 94 Calm 30.38 1029 10 16.0934 0 0
7:15 pm 19:15 Clear 37 2.9 34 1.2 89 89 Calm 30.37 1028 10 16.0934 0 0
7:35 pm 19:35 Clear 36 2.3 34 0.9 91 91 Calm 30.37 1028 10 16.0934 0 0
7:55 pm 19:55 Clear 36 2.3 34 1.2 93 93 Calm 30.38 1029 10 16.0934 0 0
8:15 pm 20:15 Clear 36 2.1 34 1.3 95 95 Calm 30.39 1029 10 16.0934 0 0
8:35 pm 20:35 Clear 36 2.2 35 1.5 95 95 Calm 30.39 1029 10 16.0934 0 0
8:55 pm 20:55 Clear 36 2.3 35 1.4 94 94 Calm 30.38 1029 10 16.0934 0 0
9:15 pm 21:15 Clear 35 1.9 35 1.4 97 97 Calm 30.38 1029 10 16.0934 0 0
9:35 pm 21:35 Clear 36 2.4 35 1.8 96 96 Calm 30.38 1029 10 16.0934 0 0
9:55 pm 21:55 Clear 35 1.8 35 1.4 97 97 Calm 30.38 1029 10 16.0934 0 0
10:15 pm 22:15 Clear 35 1.8 35 1.4 97 97 Calm 30.37 1028 10 16.0934 0 0
10:35 pm 22:35 Clear 35 1.6 35 1.4 99 99 NE 3 6 30.37 1028 10 16.0934 0 0
10:55 pm 22:55 Clear 35 1.8 35 1.5 98 98 Calm 30.36 1028 10 16.0934 0 0
11:15 pm 23:15 Clear 35 1.4 34 1 97 97 Calm 30.36 1028 10 16.0934 0 0
11:35 pm 23:35 Clear 34 1.3 34 1.1 99 99 Calm 30.37 1029 10 16.0934 0 0
11:55 pm 23:55 Clear with Mist and Fog 33 0.8 33 0.7 99 99 Calm 30.37 1029 7 11.26538 0 0

Powered by AerisWeather